| time (UTC) | temp F | wind direction | speed MPH | gust MPH | rain 1hr in | rain 24hr in | rain mn in | humidity % | barometer mb |
| 20260506031854 | 54 | 220 | 9.0 | 0.0 | 0.00 | 0.00 | 0.00 | 93 | |
| 20260506030103 | 54 | 210 | 9.0 | 0.0 | 0.00 | 0.00 | 0.00 | 93 | 1006.0 |
| 20260506023103 | 54 | 220 | 8.0 | 0.0 | 0.00 | 0.00 | 0.00 | 93 | 1006.0 |
| 20260506021854 | 54 | 200 | 5.0 | 0.0 | 0.00 | 0.00 | 0.00 | 99 | |
| 20260506020213 | 55 | 200 | 5.0 | 0.0 | 0.00 | 0.00 | 0.00 | 93 | 1006.0 |
| 20260506015004 | 55 | 180 | 5.0 | 0.0 | 0.00 | 0.00 | 0.00 | 93 | 1006.0 |
| 20260506013102 | 54 | 170 | 3.0 | 0.0 | 0.00 | 0.00 | 0.00 | 100 | 1006.0 |
| 20260506012702 | 54 | 170 | 3.0 | 0.0 | 0.00 | 0.00 | 0.00 | 100 | 1006.0 |
| 20260506011953 | 55 | 150 | 2.0 | 0.0 | 0.00 | 0.00 | 0.00 | 93 | |
| 20260506011902 | 54 | 160 | 5.0 | 0.0 | 0.00 | 0.00 | 0.00 | 93 | 1006.0 |
| 20260506003209 | 55 | 0 | 2.0 | 0.0 | 0.00 | 0.00 | 0.00 | 93 | 1006.0 |
| 20260506001851 | 55 | 280 | 5.0 | 0.0 | 0.00 | 0.00 | 0.00 | 93 | |
| 20260505233103 | 55 | 0 | 1.0 | 0.0 | 0.00 | 0.00 | 0.00 | 93 | 1006.0 |
| 20260505231852 | 55 | 290 | 2.0 | 0.0 | 0.00 | 0.00 | 0.00 | 93 | |
| 20260505230212 | 55 | 290 | 5.0 | 0.0 | 0.00 | 0.00 | 0.00 | 93 | 1006.0 |
| 20260505224003 | 55 | 290 | 7.0 | 0.0 | 0.00 | 0.00 | 0.00 | 93 | 1006.0 |
| 20260505223103 | 57 | 290 | 8.0 | 0.0 | 0.00 | 0.00 | 0.00 | 93 | 1006.0 |
| 20260505221851 | 57 | 270 | 14.0 | 0.0 | 0.00 | 0.00 | 0.00 | 87 | |
| 20260505220703 | 57 | 270 | 13.0 | 0.0 | 0.00 | 0.00 | 0.00 | 93 | 1006.0 |
| 20260505213102 | 59 | 260 | 13.0 | 0.0 | 0.00 | 0.00 | 0.00 | 87 | 1006.0 |
| 20260505211925 | 61 | 280 | 9.0 | 0.0 | 0.00 | 0.00 | 0.00 | 77 | |
| 20260505211808 | 61 | 260 | 13.0 | 0.0 | 0.00 | 0.00 | 0.00 | 82 | 1006.0 |
| 20260505210218 | 61 | 290 | 8.0 | 0.0 | 0.00 | 0.00 | 0.00 | 77 | 1006.0 |
| 20260505203102 | 64 | 240 | 13.0 | 0.0 | 0.00 | 0.00 | 0.00 | 59 | 1004.0 |
| 20260505202903 | 64 | 240 | 13.0 | 0.0 | 0.00 | 0.00 | 0.00 | 59 | 1004.0 |
| 20260505201908 | 63 | 320 | 5.0 | 0.0 | 0.00 | 0.00 | 0.00 | 63 | |
| 20260505200219 | 63 | 320 | 6.0 | 0.0 | 0.00 | 0.00 | 0.00 | 63 | 1003.0 |
| 20260505193103 | 63 | 340 | 6.0 | 0.0 | 0.00 | 0.00 | 0.00 | 67 | 1003.0 |
| 20260505191925 | 63 | 30 | 5.0 | 0.0 | 0.00 | 0.00 | 0.00 | 67 | |
| 20260505190211 | 63 | 40 | 6.0 | 0.0 | 0.00 | 0.00 | 0.00 | 67 | 1004.0 |
| 20260505183102 | 66 | 70 | 10.0 | 0.0 | 0.00 | 0.00 | 0.00 | 55 | 1004.0 |
| 20260505181910 | 66 | 110 | 12.0 | 0.0 | 0.00 | 0.00 | 0.00 | 52 | |
| 20260505180103 | 66 | 110 | 12.0 | 0.0 | 0.00 | 0.00 | 0.00 | 55 | 1004.0 |
| 20260505174403 | 66 | 120 | 12.0 | 0.0 | 0.00 | 0.00 | 0.00 | 55 | 1004.0 |
| 20260505173102 | 68 | 120 | 15.0 | 0.0 | 0.00 | 0.00 | 0.00 | 52 | 1004.0 |
| 20260505171852 | 68 | 120 | 16.0 | 0.0 | 0.00 | 0.00 | 0.00 | 52 | |
| 20260505170103 | 68 | 130 | 16.0 | 0.0 | 0.00 | 0.00 | 0.00 | 52 | 1005.0 |
| 20260505163209 | 75 | 50 | 7.0 | 0.0 | 0.00 | 0.00 | 0.00 | 33 | 1004.0 |
| 20260505162024 | 75 | 60 | 7.0 | 0.0 | 0.00 | 0.00 | 0.00 | 36 | |
| 20260505153210 | 75 | 80 | 5.0 | 0.0 | 0.00 | 0.00 | 0.00 | 36 | 1005.0 |
| 20260505151908 | 73 | 80 | 5.0 | 0.0 | 0.00 | 0.00 | 0.00 | 38 | |
| 20260505150212 | 73 | 110 | 3.0 | 0.0 | 0.00 | 0.00 | 0.00 | 40 | 1005.0 |
| 20260505140211 | 75 | 20 | 6.0 | 0.0 | 0.00 | 0.00 | 0.00 | 38 | 1005.0 |
| 20260505123103 | 72 | 30 | 5.0 | 0.0 | 0.00 | 0.00 | 0.00 | 43 | 1007.0 |
| 20260505121852 | 73 | 10 | 7.0 | 0.0 | 0.00 | 0.00 | 0.00 | 40 | |
| 20260505120103 | 72 | 70 | 5.0 | 0.0 | 0.00 | 0.00 | 0.00 | 43 | 1007.0 |
| 20260505113103 | 72 | 130 | 3.0 | 0.0 | 0.00 | 0.00 | 0.00 | 43 | 1007.0 |
| 20260505111851 | 72 | 340 | 7.0 | 0.0 | 0.00 | 0.00 | 0.00 | 43 | |
| 20260505110208 | 72 | 10 | 6.0 | 0.0 | 0.00 | 0.00 | 0.00 | 46 | 1007.0 |
| 20260505101852 | 70 | 350 | 5.0 | 0.0 | 0.00 | 0.00 | 0.00 | 43 | |
| 20260505093102 | 68 | 20 | 5.0 | 0.0 | 0.00 | 0.00 | 0.00 | 52 | 1008.0 |
| 20260505091851 | 68 | 10 | 7.0 | 0.0 | 0.00 | 0.00 | 0.00 | 56 | |
| 20260505083102 | 66 | 350 | 6.0 | 0.0 | 0.00 | 0.00 | 0.00 | 59 | 1008.0 |
| 20260505081853 | 64 | 40 | 5.0 | 0.0 | 0.00 | 0.00 | 0.00 | 63 | |
| 20260505080103 | 64 | 20 | 5.0 | 0.0 | 0.00 | 0.00 | 0.00 | 63 | 1008.0 |
| 20260505073103 | 63 | 30 | 6.0 | 0.0 | 0.00 | 0.00 | 0.00 | 67 | 1008.0 |
| 20260505071851 | 63 | 30 | 5.0 | 0.0 | 0.00 | 0.00 | 0.00 | 67 | |
| 20260505070211 | 63 | 10 | 5.0 | 0.0 | 0.00 | 0.00 | 0.00 | 67 | 1009.0 |
| 20260505063102 | 61 | 360 | 3.0 | 0.0 | 0.00 | 0.00 | 0.00 | 77 | 1008.0 |
| 20260505061854 | 61 | 10 | 5.0 | 0.0 | 0.00 | 0.00 | 0.00 | 72 | |
| 20260505053103 | 63 | 0 | 2.0 | 0.0 | 0.00 | 0.00 | 0.00 | 67 | 1009.0 |
| 20260505051852 | 59 | 270 | 2.0 | 0.0 | 0.00 | 0.00 | 0.00 | 77 | |
| 20260505050210 | 61 | 0 | 0.0 | 0.0 | 0.00 | 0.00 | 0.00 | 72 | 1009.0 |
| 20260505033103 | 57 | 270 | 5.0 | 0.0 | 0.00 | 0.00 | 0.00 | 87 | 1009.0 |